Погода в Родниковской

Россия / Краснодарский край     44°45′57″N   40°39′33″E
темп.,
°C
ветер,
м/с
пор.,
м/с
влажн.,
%
обл.,
%
осадки,
мм/ч
давл.,
гПа
погр.,
м
22 октября, пт
пт2200:00+8ююв33530 0.0 102228
03:00+8ю22645 0.0 102117
06:00+7ю22633 0.0 102011
09:00+13ююв23425 0.0 1020156
12:00+19сз21314 0.0 1019518
15:00+20ссз22300 0.0 1019681
18:00+15вюв11400 0.0 102011
21:00+12ююв33500 0.0 102017
23 октября, сб
сб2300:00+11ю33590 0.0 102032
03:00+10ю33622 0.0 102022
06:00+9ю33570 0.0 102022
09:00+15ююв34401 0.0 1020163
12:00+21ю12275 0.0 1019715
15:00+22зсз322559 0.0 10181308
18:00+15зсз3341100 0.0 101919
21:00+13юз2260100 0.0 102015
24 октября, вс
вс2400:00+12ююз2260100 0.0 102014
03:00+11ююз2257100 0.0 102012
06:00+11ю1159100 0.0 101911
09:00+13зюз2352100 0.0 1020226
12:00+15зсз4567100 0.0 1019976
15:00+12с5582100 0.0 1019446
18:00+10ссз5791100 0.3 1021515
21:00+7ссз6889100 2.0 1022550
25 октября, пн
пн2500:00+5зсз4689100 5.5 1023711
03:00+6зюз368280 6.3 1024530
06:00+5зюз410895 0.0 1024334
09:00+6зсз71078100 0.1 1026882
12:00+7зсз796069 0.1 10271494
15:00+8сз674950 0.1 10281532
18:00+4ссз35675 0.0 1031111
21:00+2ю01713 0.0 103210
26 октября, вт
вт2600:00+1ю21750 0.0 103210
03:00+1в117767 0.0 103310
06:000вюв22802 0.0 103316
09:00+4в34620 0.0 1034364
12:00+8всв44450 0.0 1032931
15:00+9всв45400 0.0 10301028
18:00+5всв48560 0.0 1030148
21:00+3в512600 0.0 1029282